Omak, WA

8:20 PM PST on February 23, 2018 (GMT -0800)
Omak

Weather History for KOMK - May, 2012

Change the Weather History Date:

Thursday, May 10, 2012

  Actual Average Record
Temperature  
Mean Temperature 45 °F 56 °F  
Max Temperature 62 °F 70 °F 91 °F (1949)
Min Temperature 28 °F 42 °F 28 °F (2012)
Degree Days  
Heating Degree Days 20 9  
Month to date heating degree days 152 103  
Since 1 July heating degree days 6436 6142  
Cooling Degree Days 0 0  
Month to date cooling degree days 0 0  
Year to date cooling degree days 2 1  
Moisture  
Dew Point 18 °F    
Average Humidity 39    
Maximum Humidity 63    
Minimum Humidity 14    
Precipitation  
Precipitation 0.00 in 0.04 in 1.27 in (1977)
Month to date precipitation 0.35 0.45  
Year to date precipitation 5.61 5.98  
Sea Level Pressure  
Sea Level Pressure 30.24 in    
Wind  
Wind Speed 5 mph (NW)    
Max Wind Speed 14 mph    
Max Gust Speed 17 mph    
Visibility 10 miles    
Events      
T = Trace of Precipitation, MM = Missing Value Source: NWS Daily Summary

Daily Weather History Graph

Daily Weather History Graph

Search for Another Location

Airport or City:

Trip Planner

Search our weather history database for the weather conditions in past years. The results will help you decide how hot, cold, wet, or windy it might be!

Date:

Astronomy

May. 10, 2012 Rise Set
Actual Time 5:23 AM PDT 8:26 PM PDT
Civil Twilight 4:47 AM PDT 9:02 PM PDT
Nautical Twilight 3:59 AM PDT 9:50 PM PDT
Astronomical Twilight 3:01 AM PDT 10:50 PM PDT
Moon 12:29 AM PDT (5/10) 9:53 AM PDT (5/10)
Length of Visible Light 16h 15m
Length of Day
15h 02m
Waning Gibbous, 72% of the Moon is Illuminated
May 10
Waning Gibbous
May 12
Last Quarter
May 20
New
May 28
First Quarter
Jun 4
Full

Hourly Weather History & Observations

Time (PDT) Temp. Windchill Dew Point Humidity Pressure Visibility Wind Dir Wind Speed Gust Speed Precip Events Conditions
12:53 AM 35.1 °F 29.3 °F 19.9 °F 54% 30.16 in 10.0 mi NNW 6.9 mph - N/A   Clear
1:53 AM 34.0 °F 28.8 °F 19.9 °F 56% 30.18 in 10.0 mi North 5.8 mph - N/A   Clear
2:53 AM 33.1 °F 28.7 °F 21.0 °F 61% 30.21 in 10.0 mi WNW 4.6 mph - N/A   Clear
3:53 AM 30.9 °F 26.2 °F 19.9 °F 64% 30.23 in 10.0 mi WNW 4.6 mph - N/A   Clear
4:53 AM 30.9 °F 24.3 °F 19.9 °F 64% 30.24 in 10.0 mi WNW 6.9 mph - N/A   Clear
5:53 AM 33.1 °F 30.0 °F 21.0 °F 61% 30.27 in 10.0 mi ENE 3.5 mph - N/A   Clear
6:53 AM 39.0 °F 36.8 °F 21.0 °F 49% 30.29 in 10.0 mi SSW 3.5 mph - N/A   Clear
7:53 AM 43.0 °F - 19.9 °F 40% 30.30 in 10.0 mi Calm Calm - N/A   Clear
8:53 AM 46.9 °F - 19.9 °F 34% 30.30 in 10.0 mi South 3.5 mph - N/A   Clear
9:53 AM 50.0 °F - 12.9 °F 23% 30.30 in 10.0 mi WSW 3.5 mph - N/A   Clear
10:53 AM 53.1 °F - 10.9 °F 19% 30.29 in 10.0 mi Calm Calm - N/A   Clear
11:53 AM 55.0 °F - 12.9 °F 19% 30.27 in 10.0 mi ENE 5.8 mph - N/A   Clear
12:53 PM 57.0 °F - 14.0 °F 18% 30.26 in 10.0 mi Variable 3.5 mph - N/A   Clear
1:53 PM 59.0 °F - 15.1 °F 18% 30.25 in 10.0 mi South 11.5 mph 17.3 mph N/A   Clear
2:53 PM 60.1 °F - 15.1 °F 17% 30.24 in 10.0 mi Variable 4.6 mph - N/A   Clear
3:53 PM 61.0 °F - 15.1 °F 17% 30.23 in 10.0 mi East 10.4 mph - N/A   Partly Cloudy
4:53 PM 62.1 °F - 14.0 °F 15% 30.22 in 10.0 mi Variable 5.8 mph - N/A   Clear
5:53 PM 60.1 °F - 12.0 °F 15% 30.21 in 10.0 mi Calm Calm - N/A   Clear
6:53 PM 60.1 °F - 12.9 °F 16% 30.20 in 10.0 mi East 4.6 mph - N/A   Clear
7:53 PM 55.0 °F - 19.0 °F 24% 30.20 in 10.0 mi North 3.5 mph - N/A   Clear
8:53 PM 50.0 °F - 21.9 °F 33% 30.22 in 10.0 mi WNW 5.8 mph - N/A   Clear
9:53 PM 46.9 °F - 23.0 °F 39% 30.24 in 10.0 mi NW 9.2 mph - N/A   Clear
10:53 PM 44.1 °F 39.5 °F 23.0 °F 43% 30.25 in 10.0 mi NW 8.1 mph - N/A   Clear
11:53 PM 43.0 °F 37.2 °F 23.0 °F 45% 30.27 in 10.0 mi WNW 10.4 mph - N/A   Clear